Regional Weather Roundup
Issued by NWS

Home | Current Version | Previous Version | Graphics & Text | Print | Product List | Glossary On
Versions: 1 2 3 4 5 6 7 8 9 10 11 12 13 14 15 16 17 18 19 20 21 22 23 24 25 26 27 28 29 30 31 32 33 34 35 36 37 38 39 40 41 42 43 44 45 46 47 48 49 50
000
ASUS45 KABQ 211201
RWRNM
NEW MEXICO REGIONAL WEATHER ROUNDUP
NATIONAL WEATHER SERVICE ALBUQUERQUE NM
600 AM MDT FRI JUL 21 2017

NOTE: "FAIR" MEANS FEW OR NO CLOUDS BELOW 12,000 FEET AGL WITH NO
       SIGNIFICANT WEATHER OR OBSTRUCTIONS TO VISION.

      THIS PRODUCT IS RELEASED AS TWO VERSIONS.  ONE VERSION NEAR
      THE TOP OF THE HOUR CONTAINING PRELIMINARY DATA FROM ALBUQUERQUE
      AND OTHER STATIONS.  A FINAL VERSION WITH ADDITIONAL DATA IS
      ISSUED ABOUT 10 MINUTES AFTER THE HOUR.

NMZ501-503-504-510>518-211300-
NORTHWEST PLATEAU/NORTHCENTRAL MOUNTAINS

CITY           SKY/WX    TMP DP  RH WIND       PRES   REMARKS
FARMINGTON     MOCLDY    61  57  87 NE6       30.19R
6HR MIN TEMP:  60; 6HR MAX TEMP:  69;

LOS ALAMOS     FAIR      65  49  56 CALM      30.32S
SANTA FE       FAIR      61  53  75 N3        30.27R
6HR MIN TEMP:  60; 6HR MAX TEMP:  70;

TAOS           FAIR      59  43  55 E3        30.34S
ANGEL FIRE     FAIR      45  43  93 CALM      30.43R

$$
NMZ402-403-502-505>509-211300-
WESTCENTRAL MOUNTAINS/SOUTHWEST MOUNTAINS

CITY           SKY/WX    TMP DP  RH WIND       PRES   REMARKS
GALLUP         CLOUDY    63  57  81 CALM      30.27S
6HR MIN TEMP:  62; 6HR MAX TEMP:  64; 6HR PCP: TRACE;

GRANTS         FAIR      55  51  86 CALM      30.30R
SILVER CITY    FAIR      62  60  93 N3        30.20R

$$
NMZ407-409-411-412-211300-
SOUTHERN DESERTS

CITY           SKY/WX    TMP DP  RH WIND       PRES   REMARKS
DEMING         FAIR      66  66 100 E3        30.14R
6HR MIN TEMP:  66; 6HR MAX TEMP:  69;

LAS CRUCES     MOCLDY    67  65  91 CALM      30.15R
HOLLOMAN AFB   FAIR      67  60  77 CALM      30.13R
ALAMOGORDO     FAIR      64  59  82 SE7       30.13R
T OR C         FAIR      68  58  70 CALM      30.16R
6HR MIN TEMP:  67; 6HR MAX TEMP:  69;


$$
NMZ519>523-211300-
CENTRAL VALLEYS/CENTRAL HIGHLANDS

CITY           SKY/WX    TMP DP  RH WIND       PRES   REMARKS
ALBUQUERQUE    FAIR      67  55  65 SE6       30.21R
6HR MIN TEMP:  67; 6HR MAX TEMP:  74;

MORIARTY ARPT  FAIR      54  52  93 CALM      30.28S
6HR MIN TEMP:  54; 6HR MAX TEMP:  63;

CLINES CORNERS FAIR      56  51  84 W10       30.32R
6HR MIN TEMP:  55; 6HR MAX TEMP:  64;

BELEN          NOT AVBL
SOCORRO        FAIR      64  58  80 CALM      30.18S
6HR MIN TEMP:  64; 6HR MAX TEMP:  74;


$$
NMZ524>526-539-540-211300-
SOUTHCENTRAL MOUNTAINS

CITY           SKY/WX    TMP DP  RH WIND       PRES   REMARKS
RUIDOSO        FAIR      59  54  82 SW5       30.32R

$$
NMZ527>531-211300-
NORTHEAST HIGHLANDS/NORTHEAST PLAINS

CITY           SKY/WX    TMP DP  RH WIND       PRES   REMARKS
LAS VEGAS      FAIR      58  49  72 S8        30.28R
6HR MIN TEMP:  57; 6HR MAX TEMP:  63;

RATON          FAIR      57  47  69 NE5       30.22R
6HR MIN TEMP:  57; 6HR MAX TEMP:  69;

CLAYTON        FAIR      66  52  60 SW8       30.12R
6HR MIN TEMP:  66; 6HR MAX TEMP:  70;


$$
NMZ532>537-211300-
EASTCENTRAL PLAINS

CITY           SKY/WX    TMP DP  RH WIND       PRES   REMARKS
SANTA ROSA     FAIR      64  53  67 SE8       30.15S
TUCUMCARI      FAIR      73  53  49 SW14      30.08S
6HR MIN TEMP:  73; 6HR MAX TEMP:  78;

CANNON AFB     FAIR      68  53  58 S5        30.16R
6HR MIN TEMP:  68; 6HR MAX TEMP:  75;

CLOVIS AIRPORT FAIR      66  52  60 W7        30.16R

$$
NMZ028-029-538-211300-
SOUTHEAST PLAINS

CITY           SKY/WX    TMP DP  RH WIND       PRES   REMARKS
ROSWELL        FAIR      71  54  54 CALM      30.09R
6HR MIN TEMP:  70; 6HR MAX TEMP:  80;

ARTESIA        FAIR      72  55  56 CALM      30.08R
CARLSBAD       FAIR      68  56  65 SW5       30.05R
6HR MIN TEMP:  68; 6HR MAX TEMP:  80;

HOBBS          CLEAR     66  55  68 SE3       30.11R


$$



USA.gov is the U.S. government's official web portal to all federal, state and local government web resources and services.